[[{"header":{"parameterUnit":"m.s-1","parameterCategory":1,"la1":30.2991,"la2":30.254,"lo1":-89.0895,"lo2":-89.0444,"dy":0.0017,"dx":0.0017,"nx":28,"ny":28,"refTime":"2025-11-09T09:00:00:Z","depth":0,"parameterNumber":2,"parameterNumberName":"U-component_of_WINDS"},"data":[0,0,0,0,0,0,0,0,0,0,0,0,0,0,0,0,0,0,0,0,0,0,0,0,0,0,0,0,0,0,0,0,0,0,0,0,0,0,0,0,0,0,0,0,0,0,0,0,0,0,0,0,0,0,0,0,0,0,2.667,2.667,0,2.6706,2.6707,2.6707,2.6703,2.6702,2.6701,2.6701,2.6737,2.6739,2.674,0,0,0,0,0,0,0,0,0,0,0,0,0,2.6597,2.6598,2.667,2.667,2.6671,2.6706,2.6707,2.6707,2.6703,2.6702,2.6701,2.6701,2.6737,2.6738,2.674,0,0,0,0,0,0,0,0,0,0,0,0,0,2.663,2.6599,2.667,2.6673,2.6673,2.6706,2.6707,2.6707,2.6703,2.6702,2.6701,2.67,2.6736,2.6738,2.674,2.6772,0,0,2.6747,2.6748,0,0,0,0,0,0,0,0,2.6628,2.6633,2.6672,2.6673,2.6673,2.6699,2.6694,2.6729,2.6703,2.6692,2.6701,2.67,2.6725,2.6728,2.6737,2.6774,2.6775,2.6748,2.6749,2.675,2.6751,0,0,0,0,0,0,0,2.6626,2.6631,2.6684,2.6672,2.6673,2.6672,2.6676,2.6701,2.6713,2.6692,2.6692,2.6697,2.6725,2.6735,2.6738,2.6776,2.6747,2.675,2.6751,2.6752,2.6843,2.6844,0,0,0,0,0,0,2.6623,2.6629,2.6683,2.6685,2.6648,2.6675,2.6679,2.6692,2.6713,2.6715,2.6697,2.6696,2.6731,2.6735,2.6739,2.6779,2.675,2.6752,2.6753,2.6842,2.6844,2.6845,0,0,0,0,0,0,2.6621,2.6628,2.6682,2.6657,2.6664,2.6677,2.6691,2.6693,2.6702,2.6716,2.6718,2.6705,2.6731,2.6736,2.6765,2.678,2.6753,2.6755,2.6841,2.6843,2.6844,2.6858,0,0,0,0,0,0,2.6619,2.6627,2.6639,2.6658,2.6666,2.6706,2.6692,2.6694,2.6706,2.6705,2.6724,2.6726,2.673,2.6761,2.6767,2.6783,2.6757,2.684,2.6842,2.6844,2.6856,2.686,2.6863,0,0,0,0,0,2.6617,2.6641,2.664,2.6646,2.6681,2.6707,2.6712,2.6716,2.6708,2.672,2.6729,2.6725,2.6778,2.6764,2.677,2.6787,2.6839,2.6841,2.6844,2.6855,2.6859,2.6863,0,0,0,0,0,0,2.6623,2.6643,2.6642,2.6673,2.6689,2.6706,2.6722,2.6721,2.6739,2.6737,2.6742,2.6746,2.6776,2.6784,2.6769,2.682,2.6807,2.6811,2.6813,2.6818,2.6821,2.6818,2.6759,0,0,0,0,0,2.6628,2.6648,2.6664,2.669,2.6698,2.6709,2.672,2.6723,2.6739,2.6746,2.6757,2.6773,2.6793,2.6806,2.6825,2.6858,2.6862,2.6873,2.6876,2.6879,2.6882,2.6902,2.6907,2.6853,2.6853,2.6853,0,0,2.6638,2.6652,2.6664,2.6692,2.6704,2.6725,2.6714,2.6736,2.6752,2.6749,2.6777,2.6786,2.6804,2.6836,2.685,2.6844,2.6898,2.6882,2.6884,2.6885,2.6905,2.691,2.6914,2.6854,2.6854,2.6854,0,0,2.6667,2.6679,2.6703,2.6716,2.6735,2.6743,2.6748,2.6767,2.6773,2.6802,2.6801,2.682,2.6854,2.6868,2.6879,2.6917,2.6914,2.6923,2.694,2.6959,2.6963,2.6967,2.6981,2.6986,2.6926,2.6926,2.6926,0,2.6677,2.6708,2.6715,2.6738,2.6751,2.675,2.6775,2.6787,2.6811,2.682,2.6813,2.6858,2.687,2.6905,2.6915,2.6924,2.6931,2.692,2.6962,2.6966,2.697,2.6984,2.6989,2.6927,2.6927,2.6927,2.6926,0,2.672,2.6742,2.6759,2.6784,2.6799,2.6822,2.6833,2.6847,2.6849,2.6858,2.6888,2.6903,2.6926,2.6935,2.6937,2.6971,2.6967,2.6961,2.6948,2.6976,2.6989,2.6994,2.6928,2.6928,2.6927,2.6927,0,0,2.6752,2.6782,2.6788,2.68,2.6823,2.684,2.6865,2.6888,2.6901,2.6918,2.6939,2.697,2.6965,2.6978,2.6982,2.6999,2.7029,2.6991,2.6992,2.6998,2.707,2.7074,2.708,2.7028,2.7029,2.703,2.7068,0,2.6784,2.6827,2.6834,2.6872,2.6893,2.6895,2.6916,2.6933,2.6942,2.6962,2.6972,2.6994,2.6986,2.6994,2.7011,2.7022,2.7044,2.7019,2.7048,2.7049,2.7043,2.7086,2.709,2.7125,2.7073,2.7074,2.7075,0,2.6826,2.6846,2.6886,2.6908,2.6917,2.6936,2.696,2.6978,2.6998,2.7004,2.702,2.7022,2.7048,2.7035,2.7071,2.7055,2.7067,2.7075,2.7077,2.7079,2.7063,2.709,2.7137,2.7142,2.7083,2.7082,2.7082,0,2.6846,2.6883,2.6912,2.6923,2.6949,2.6962,2.6974,2.6993,2.7007,2.7028,2.7037,2.706,2.7073,2.7091,2.71,2.7089,2.7137,2.7124,2.7143,2.7142,2.7152,2.7151,2.7201,2.716,2.716,2.716,2.716,0,2.688,2.6905,2.6922,2.694,2.6968,2.6977,2.7005,2.7016,2.7034,2.7054,2.7057,2.7077,2.7088,2.7109,2.7116,2.7146,2.7152,2.7158,2.7159,2.7157,2.7157,2.7165,2.7163,2.7161,2.7161,2.7161,2.716,0,2.6907,2.6919,2.6951,2.6974,2.6981,2.7001,2.702,2.7038,2.7049,2.7075,2.7082,2.7098,2.7123,2.7135,2.7166,2.7171,2.7205,2.7205,2.7199,2.7199,2.7218,2.7216,2.7275,2.7283,2.7237,2.7237,2.7238,0,2.6928,2.6947,2.6973,2.6987,2.6999,2.7022,2.7038,2.7048,2.7064,2.7089,2.7105,2.7131,2.7152,2.7193,2.7207,2.7232,2.7232,2.7251,2.7235,2.7234,2.7233,2.7232,2.7234,2.7254,2.7254,2.7254,2.7255,0,2.6964,2.697,2.6992,2.7017,2.7035,2.7055,2.7074,2.7086,2.71,2.7118,2.7144,2.7161,2.7194,2.722,2.7246,2.7258,2.7259,2.726,2.7266,2.7264,2.7259,2.7262,2.7206,2.7258,2.7258,2.7258,2.7257,2.7257,2.6988,2.7006,2.7028,2.7053,2.7069,2.7088,2.7106,2.712,2.7142,2.717,2.7176,2.7204,2.7226,2.7261,2.7274,2.7297,2.7293,2.7301,2.7303,2.7305,2.7306,2.7256,2.7302,2.7302,2.7302,2.7302,2.7302,0,2.7025,2.704,2.7063,2.7091,2.7111,2.7111,2.7134,2.715,2.7176,2.7196,2.7217,2.7249,2.7275,2.7292,2.7319,2.7334,2.7335,2.7341,2.734,2.7343,2.7308,2.7301,2.7339,2.7339,2.7339,2.7339,2.7339,2.7339,2.7047,2.7077,2.7086,2.7126,2.714,2.7169,2.7182,2.7199,2.7216,2.7251,2.7273,2.7285,2.7304,2.7333,2.7357,2.7362,2.7371,2.7377,2.7381,2.7349,2.7345,2.7341,2.7334,2.7379,2.7379,2.7414,2.7414,2.7414]},{"header":{"parameterUnit":"m.s-1","parameterCategory":1,"la1":30.2991,"la2":30.254,"lo1":-89.0895,"lo2":-89.0444,"dy":0.0017,"dx":0.0017,"nx":28,"ny":28,"refTime":"2025-11-09T09:00:00:Z","depth":0,"parameterNumber":3,"parameterNumberName":"V-component_of_WINDS"},"data":[0,0,0,0,0,0,0,0,0,0,0,0,0,0,0,0,0,0,0,0,0,0,0,0,0,0,0,0,0,0,0,0,0,0,0,0,0,0,0,0,0,0,0,0,0,0,0,0,0,0,0,0,0,0,0,0,0,0,-8.2654,-8.2655,0,-8.2746,-8.2747,-8.2749,-8.2705,-8.2702,-8.27,-8.2698,-8.2785,-8.279,-8.2794,0,0,0,0,0,0,0,0,0,0,0,0,0,-8.2434,-8.2439,-8.2654,-8.2655,-8.2656,-8.2746,-8.2748,-8.2749,-8.2705,-8.2702,-8.2699,-8.2697,-8.2784,-8.2789,-8.2795,0,0,0,0,0,0,0,0,0,0,0,0,0,-8.2528,-8.244,-8.2654,-8.2645,-8.2646,-8.2746,-8.2748,-8.2749,-8.2706,-8.2702,-8.2699,-8.2695,-8.2782,-8.2789,-8.2795,-8.2907,0,0,-8.2816,-8.2819,0,0,0,0,0,0,0,0,-8.2523,-8.2537,-8.2645,-8.2646,-8.2647,-8.2711,-8.2702,-8.2802,-8.2706,-8.2683,-8.2698,-8.2694,-8.2763,-8.2771,-8.2796,-8.2911,-8.2915,-8.2817,-8.2821,-8.2824,-8.2826,0,0,0,0,0,0,0,-8.2517,-8.2532,-8.269,-8.2647,-8.2648,-8.2635,-8.2645,-8.2721,-8.2741,-8.2684,-8.2681,-8.2693,-8.2762,-8.2789,-8.2798,-8.2916,-8.2817,-8.2823,-8.2827,-8.2829,-8.3131,-8.3135,0,0,0,0,0,0,-8.2511,-8.2527,-8.2687,-8.2693,-8.2575,-8.2642,-8.2653,-8.2693,-8.274,-8.2744,-8.2696,-8.2691,-8.278,-8.279,-8.28,-8.2936,-8.2824,-8.283,-8.2834,-8.3127,-8.3132,-8.3136,0,0,0,0,0,0,-8.2507,-8.2526,-8.2683,-8.2609,-8.2629,-8.265,-8.2696,-8.2697,-8.2724,-8.2749,-8.2752,-8.2721,-8.2777,-8.2791,-8.2882,-8.2938,-8.2833,-8.2839,-8.3122,-8.3128,-8.3134,-8.3207,0,0,0,0,0,0,-8.2501,-8.2525,-8.2568,-8.2611,-8.2633,-8.2765,-8.2699,-8.2701,-8.2737,-8.2731,-8.2773,-8.2776,-8.2776,-8.2872,-8.2889,-8.2946,-8.2844,-8.3117,-8.3125,-8.3132,-8.32,-8.3215,-8.3228,0,0,0,0,0,-8.2493,-8.2583,-8.2571,-8.259,-8.2688,-8.2768,-8.2781,-8.278,-8.2741,-8.2785,-8.2802,-8.2775,-8.293,-8.2882,-8.29,-8.296,-8.3114,-8.3123,-8.3131,-8.3194,-8.3212,-8.3228,0,0,0,0,0,0,-8.2543,-8.2588,-8.2575,-8.2682,-8.2722,-8.2761,-8.2815,-8.2799,-8.2849,-8.2841,-8.2836,-8.2846,-8.2941,-8.296,-8.2906,-8.3072,-8.3016,-8.3029,-8.3057,-8.3074,-8.3088,-8.3081,-8.285,0,0,0,0,0,-8.2567,-8.263,-8.2666,-8.2756,-8.2778,-8.2794,-8.2829,-8.2825,-8.2866,-8.2882,-8.2905,-8.2943,-8.3001,-8.3038,-8.3093,-8.3203,-8.3212,-8.3253,-8.3267,-8.3278,-8.3289,-8.3351,-8.337,-8.3165,-8.3165,-8.3165,0,0,-8.2615,-8.2648,-8.2688,-8.2768,-8.2798,-8.2863,-8.2808,-8.2878,-8.2926,-8.2891,-8.298,-8.2999,-8.3041,-8.3143,-8.3189,-8.3161,-8.3349,-8.329,-8.3299,-8.3304,-8.3362,-8.3381,-8.3399,-8.3171,-8.317,-8.3169,0,0,-8.2738,-8.277,-8.285,-8.2883,-8.2932,-8.2943,-8.2962,-8.3005,-8.3017,-8.3106,-8.3083,-8.3139,-8.3237,-8.327,-8.3299,-8.3439,-8.3416,-8.3456,-8.3529,-8.3589,-8.3605,-8.3619,-8.367,-8.3688,-8.3467,-8.3467,-8.3467,0,-8.2792,-8.2891,-8.2892,-8.2966,-8.3002,-8.2978,-8.3059,-8.309,-8.3153,-8.3178,-8.3147,-8.3273,-8.3299,-8.3409,-8.3444,-8.3468,-8.349,-8.3451,-8.3603,-8.3617,-8.363,-8.3679,-8.3698,-8.3472,-8.3471,-8.3471,-8.347,0,-8.2956,-8.3025,-8.3083,-8.3149,-8.3191,-8.3268,-8.328,-8.3323,-8.3317,-8.3331,-8.3423,-8.3455,-8.3517,-8.3543,-8.3535,-8.3653,-8.3634,-8.3603,-8.3546,-8.3655,-8.37,-8.3718,-8.3478,-8.3477,-8.3475,-8.3474,0,0,-8.3109,-8.3178,-8.32,-8.323,-8.3284,-8.3337,-8.3413,-8.3476,-8.3513,-8.3558,-8.3622,-8.3708,-8.3681,-8.3714,-8.3711,-8.3764,-8.3874,-8.3727,-8.3728,-8.3753,-8.4006,-8.4029,-8.4051,-8.386,-8.3864,-8.3867,-8.4003,0,-8.3236,-8.3373,-8.3378,-8.3502,-8.3566,-8.3546,-8.3612,-8.3652,-8.3667,-8.3723,-8.3739,-8.3801,-8.376,-8.3781,-8.3832,-8.385,-8.3925,-8.384,-8.3918,-8.3921,-8.3908,-8.4074,-8.4098,-8.4225,-8.402,-8.4023,-8.4026,0,-8.3402,-8.3457,-8.3588,-8.3636,-8.3663,-8.3723,-8.3783,-8.3837,-8.3882,-8.3889,-8.3929,-8.3919,-8.3996,-8.3938,-8.4045,-8.3987,-8.402,-8.4034,-8.4039,-8.4045,-8.398,-8.4086,-8.4265,-8.4285,-8.4053,-8.4051,-8.4049,0,-8.3503,-8.3608,-8.3702,-8.3728,-8.3786,-8.3829,-8.3854,-8.3896,-8.3935,-8.3987,-8.4012,-8.4071,-8.4103,-8.4149,-8.4155,-8.4112,-8.4262,-8.4204,-8.427,-8.427,-8.4302,-8.4299,-8.4489,-8.4323,-8.4323,-8.4322,-8.4322,0,-8.3644,-8.3725,-8.3748,-8.3805,-8.3896,-8.3901,-8.399,-8.4012,-8.405,-8.4111,-8.4095,-8.4152,-8.4157,-8.4215,-8.422,-8.4308,-8.4322,-8.433,-8.433,-8.4331,-8.4331,-8.4352,-8.4343,-8.4327,-8.4326,-8.4325,-8.4324,0,-8.377,-8.3789,-8.3889,-8.3938,-8.3952,-8.4017,-8.4057,-8.4111,-8.4127,-8.4204,-8.4222,-8.4245,-8.4313,-8.4325,-8.4403,-8.4406,-8.4512,-8.4503,-8.4498,-8.4497,-8.4563,-8.4556,-8.4773,-8.4802,-8.4616,-8.4618,-8.4619,0,-8.3859,-8.3922,-8.3979,-8.402,-8.4049,-8.4114,-8.4155,-8.4163,-8.4206,-8.4264,-8.4312,-8.4379,-8.4433,-8.4542,-8.4565,-8.4625,-8.4618,-8.469,-8.4626,-8.4627,-8.462,-8.4616,-8.4623,-8.4701,-8.4703,-8.4705,-8.4706,0,-8.4016,-8.4023,-8.4084,-8.4149,-8.4199,-8.425,-8.4298,-8.4332,-8.4346,-8.4395,-8.4466,-8.4509,-8.4592,-8.4658,-8.4719,-8.4743,-8.4728,-8.4727,-8.4745,-8.4747,-8.4742,-8.4746,-8.4531,-8.4721,-8.472,-8.4719,-8.4718,-8.4717,-8.4126,-8.4182,-8.4232,-8.4301,-8.4339,-8.4386,-8.444,-8.4464,-8.4525,-8.4595,-8.4596,-8.4674,-8.4719,-8.48,-8.4829,-8.4889,-8.4866,-8.4892,-8.4899,-8.4906,-8.4913,-8.4733,-8.49,-8.49,-8.4899,-8.4899,-8.4899,0,-8.4282,-8.4315,-8.4378,-8.4449,-8.4503,-8.4487,-8.454,-8.4586,-8.4656,-8.4701,-8.4756,-8.4839,-8.4905,-8.4935,-8.4999,-8.5042,-8.5036,-8.5058,-8.5055,-8.5061,-8.4929,-8.4907,-8.5062,-8.5062,-8.5062,-8.5062,-8.5062,-8.5062,-8.437,-8.4465,-8.4479,-8.4592,-8.4623,-8.4702,-8.4734,-8.4777,-8.4813,-8.4907,-8.4963,-8.4984,-8.5023,-8.509,-8.515,-8.5157,-8.5181,-8.5207,-8.5211,-8.5087,-8.507,-8.5054,-8.5033,-8.5212,-8.5212,-8.5337,-8.5339,-8.5339]}]]